Weather History for KCSM - April, 2014

Change the Weather History Date:

Monday, April 7, 2014

  Actual Average Record
Temperature  
Mean Temperature 51 °F -  
Max Temperature 68 °F 65 °F 90 °F (2015)
Min Temperature 36 °F 42 °F 25 °F (2009)
Degree Days  
Heating Degree Days 14    
Growing Degree Days 1 (Base 50)    
Moisture  
Dew Point 39 °F    
Average Humidity 80    
Maximum Humidity 100    
Minimum Humidity 32    
Precipitation  
Precipitation 0.02 in - - ()
Sea Level Pressure  
Sea Level Pressure 29.88 in    
Wind  
Wind Speed 6 mph (WNW)    
Max Wind Speed 25 mph    
Max Gust Speed 34 mph    
Visibility 6 miles    
Events Fog , Snow    
Averages and records for this station are not official NWS values.
T = Trace of Precipitation, MM = Missing Value Source: NWS Daily Summary

Daily Weather History Graph

Daily Weather History Graph

Search for Another Location

Airport or City:

Trip Planner

Search our weather history database for the weather conditions in past years. The results will help you decide how hot, cold, wet, or windy it might be!

Date:

Astronomy

Apr. 07, 2014 Rise Set
Actual Time 7:15 AM CDT 8:03 PM CDT
Civil Twilight 6:49 AM CDT 8:29 PM CDT
Nautical Twilight 6:18 AM CDT 8:59 PM CDT
Astronomical Twilight 5:47 AM CDT 9:31 PM CDT
Moon 1:17 PM CDT (4/7) 2:35 AM CDT (4/7)
Length of Visible Light 13h 39m
Length of Day
12h 48m
First Quarter, 53% of the Moon is Illuminated
Apr 7
First Quarter
Apr 15
Full
Apr 22
Last Quarter
Apr 29
New
May 6
First Quarter

Hourly Weather History & Observations

Time (CDT) Temp. Windchill Dew Point Humidity Pressure Visibility Wind Dir Wind Speed Gust Speed Precip Events Conditions
12:20 AM 46.4 °F 44.3 °F 44.6 °F 93% 29.86 in 6.0 mi SSW 4.6 mph - N/A   Overcast
12:53 AM 45.0 °F - 44.1 °F 97% 29.86 in 6.0 mi Calm Calm - 0.00 in   Overcast
1:53 AM 44.1 °F - 43.0 °F 96% 29.83 in 5.0 mi Calm Calm - 0.00 in   Overcast
2:29 AM 42.8 °F 41.1 °F 41.0 °F 93% 29.83 in 1.8 mi WSW 3.5 mph - N/A   Partly Cloudy
2:37 AM 41.0 °F 38.0 °F 41.0 °F 100% 29.83 in 0.5 mi WSW 4.6 mph - N/A Fog Fog
2:49 AM 39.2 °F 35.0 °F 39.2 °F 100% 29.83 in 1.0 mi WSW 5.8 mph - N/A   Mist
2:53 AM 39.9 °F 35.8 °F 39.0 °F 97% 29.83 in 1.0 mi WSW 5.8 mph - N/A   Mist
3:00 AM 39.2 °F 35.0 °F 39.2 °F 100% 29.83 in 0.5 mi WSW 5.8 mph - N/A Fog Fog
3:49 AM 37.4 °F 33.8 °F 37.4 °F 100% 29.81 in 0.5 mi WSW 4.6 mph - N/A Fog Fog
3:53 AM 36.0 °F 32.1 °F 36.0 °F 100% 29.82 in 0.5 mi WSW 4.6 mph - N/A Fog Fog
4:19 AM 37.4 °F 32.8 °F 37.4 °F 100% 29.82 in 0.5 mi WSW 5.8 mph - 0.00 in Fog , Snow Light Snow
4:28 AM 37.4 °F 32.8 °F 37.4 °F 100% 29.82 in 1.0 mi West 5.8 mph - 0.00 in   Mist
4:33 AM 37.4 °F 32.1 °F 37.4 °F 100% 29.82 in 2.0 mi West 6.9 mph - 0.00 in   Partly Cloudy
4:43 AM 39.2 °F 33.6 °F 37.4 °F 93% 29.82 in 4.0 mi WSW 8.1 mph - 0.00 in   Clear
4:53 AM 39.9 °F 35.8 °F 39.0 °F 97% 29.82 in 4.0 mi WSW 5.8 mph - 0.00 in   Clear
5:23 AM 39.2 °F 35.9 °F 39.2 °F 100% 29.83 in 2.5 mi West 4.6 mph - N/A   Scattered Clouds
5:33 AM 39.2 °F 37.0 °F 39.2 °F 100% 29.83 in 4.0 mi West 3.5 mph - N/A   Mostly Cloudy
5:53 AM 41.0 °F 38.0 °F 39.9 °F 96% 29.84 in 6.0 mi West 4.6 mph - N/A   Overcast
6:53 AM 39.0 °F 34.8 °F 37.9 °F 96% 29.87 in 6.0 mi West 5.8 mph - N/A   Partly Cloudy
7:53 AM 37.9 °F 32.7 °F 37.0 °F 97% 29.89 in 5.0 mi WNW 6.9 mph - N/A   Clear
8:53 AM 48.0 °F - 43.0 °F 83% 29.89 in 8.0 mi NW 8.1 mph - N/A   Clear
9:53 AM 53.1 °F - 45.0 °F 74% 29.89 in 10.0 mi NNW 9.2 mph - N/A   Clear
10:53 AM 57.9 °F - 46.0 °F 65% 29.89 in 10.0 mi NNW 8.1 mph - N/A   Clear
11:53 AM 61.0 °F - 45.0 °F 56% 29.90 in 10.0 mi NNE 8.1 mph 18.4 mph N/A   Clear
12:53 PM 62.1 °F - 43.0 °F 50% 29.90 in 10.0 mi NNW 20.7 mph 26.5 mph 0.01 in   Mostly Cloudy
1:53 PM 64.0 °F - 42.1 °F 45% 29.91 in 10.0 mi NNW 19.6 mph 29.9 mph N/A   Scattered Clouds
3:53 PM 66.0 °F - 36.0 °F 33% 29.90 in 10.0 mi NNW 25.3 mph 34.5 mph N/A   Partly Cloudy
4:53 PM 66.0 °F - 35.1 °F 32% 29.88 in 10.0 mi NNW 18.4 mph 29.9 mph N/A   Scattered Clouds
5:53 PM 63.0 °F - 37.0 °F 38% 29.91 in 10.0 mi North 16.1 mph 24.2 mph N/A   Partly Cloudy
6:53 PM 59.0 °F - 35.1 °F 41% 29.96 in 10.0 mi North 20.7 mph 33.4 mph N/A   Overcast
7:53 PM 55.9 °F - 36.0 °F 47% 29.98 in 10.0 mi North 12.7 mph - 0.00 in   Clear
8:53 PM 48.0 °F - 35.1 °F 61% 30.02 in 10.0 mi North 8.1 mph - N/A   Partly Cloudy
9:53 PM 48.9 °F - 39.9 °F 71% 30.06 in 10.0 mi NW 6.9 mph - 0.01 in   Scattered Clouds
10:53 PM 43.0 °F 38.2 °F 37.9 °F 82% 30.07 in 10.0 mi NW 8.1 mph - N/A   Clear
11:53 PM 43.0 °F 37.7 °F 37.9 °F 82% 30.07 in 10.0 mi WNW 9.2 mph - N/A   Clear